sat.trackr.live / text

‹ back to catalog

STARLINK-5118

NORAD 53991 · 2022-125AD

PAYLOAD ACTIVE UNKNOWN

§ Identity

Operator
Country
US
Launch date
2022-10-05
Launch site
AFWTR
Launch vehicle
Mass (kg)
RCS (m²)

Purposes: comms

External: N2YO · Heavens-Above · Gunter

§ Orbital elements

Epoch: 2026-09-20T20:24:36.335520Z

Period
93.79 min
Inclination
53.1625°
Eccentricity
0.0001128
Mean motion
15.35402646 rev/d
Perigee alt
459.0 km
Apogee alt
460.5 km
Semi-major
6,837.9 km
B*
2.5450e-5
RAAN
36.2041°
Arg perigee
80.1687°
Mean anomaly
279.9443°
Rev number
21,921

§ Raw data

STARLINK-51181 53991U 22125AD  26263.85042055  .00000507  00000+0  25450-4 0  99982 53991  53.1625  36.2041 0001128  80.1687 279.9443 15.35402646219218

JSON: /api/v1/satellites/53991 · /tle

For live sub-satellite position, see the globe view (requires WebGL).

§ Visibility from observer

Set your observer location to see the next 7 days of passes ≥ 10°. The values pass through the URL so the page stays shareable.

No JS? Fill the form by hand. The geolocation button needs JavaScript.